Temp
76 75 74 74 75 74 72 72 71 72 71 71 70 70 69 68 66 64 63 63 62 60 60 60 59 59 59 59 58 58 57 56 52 57 60 62 61 62 65 64 66 66 65
77 75 74 74 73 71 70 70 71 70 70 69 69 68 68 67 64 63 62 62 60 57 57 57 58 60 57 57 57 55 55 56 54 52 56 57 57 59 60 60 65 70 70
78 75 73 71 70 69 69 69 69 68 67 67 67 66 65 65 63 62 61 59 57 56 56 55 56 56 55 55 54 54 55 56 54 52 52 57 57 59 59 59 60 59 66
77 74 70 69 69 69 69 68 67 66 65 65 64 64 64 63 62 57 57 55 55 55 55 56 56 55 53 53 53 52 53 51 51 50 50 52 54 57 57 56 56 57 56
73 72 70 70 70 69 67 66 65 64 63 63 62 61 61 61 55 52 53 52 51 52 54 56 56 55 56 54 52 51 50 49 48 48 48 48 49 51 50 53 53 55 56
72 71 71 70 69 66 64 63 62 61 60 60 59 60 58 59 47 48 49 50 51 51 52 54 54 55 54 53 52 52 51 48 46 45 45 45 47 48 50 50 49 48 45
71 70 69 67 66 64 63 61 59 57 57 57 57 57 55 54 47 46 46 49 49 52 52 52 53 56 53 53 52 52 51 51 50 48 45 46 45 47 47 46 46 46 45
65 65 65 64 62 61 59 57 56 56 55 54 55 55 54 53 46 45 46 50 50 53 53 53 52 52 53 49 49 48 48 49 49 50 49 49 49 50 48 46 45 46 46
60 60 61 60 58 57 55 54 53 52 52 53 54 53 52 52 45 44 45 49 51 51 52 52 53 52 49 45 46 45 45 45 49 48 47 46 45 44 45 46 43 41 41
55 57 59 57 55 54 53 51 51 51 52 53 52 52 52 51 44 44 45 49 48 49 49 51 51 49 44 43 44 43 41 43 44 45 46 46 47 48 47 46 45 41 42
55 57 56 54 53 53 51 51 51 51 51 50 50 52 52 51 49 45 45 47 48 46 47 49 53 47 44 43 42 43 42 44 43 42 43 44 47 48 49 49 48 45 43
53 52 52 51 52 52 50 50 51 51 49 49 49 50 52 51 47 45 43 43 44 45 46 50 51 43 42 42 43 43 41 42 42 42 42 42 43 45 49 50 48 48 48
49 49 49 50 49 50 50 49 50 50 48 48 49 47 47 49 48 44 43 42 43 44 48 47 43 42 43 45 45 43 43 45 43 42 41 42 43 45 47 48 49 49 49
46 46 47 48 47 48 49 48 48 46 44 45 44 43 44 44 45 43 42 42 43 45 46 43 44 43 43 44 44 45 45 43 42 43 43 44 45 44 44 45 45 46 44
43 44 45 46 46 45 46 46 46 47 43 42 42 41 40 39 41 39 38 39 40 40 39 41 43 42 41 41 42 42 43 42 41 42 42 44 44 43 42 44 43 43 41
40 41 43 43 44 44 45 47 42 42 41 40 39 39 41 40 39 38 38 38 38 38 39 40 38 38 38 38 38 38 40 41 41 41 42 42 42 42 42 43 43 42 41
40 40 42 43 43 43 44 43 41 45 42 43 40 39 39 37 38 38 37 38 39 40 40 38 37 36 37 38 38 38 38 40 41 41 39 41 42 44 41 42 43 43 42
41 42 43 43 43 44 43 42 42 41 40 41 41 40 39 38 37 37 37 40 41 43 41 37 36 36 37 38 39 39 39 39 39 38 38 40 41 43 43 43 43 43 43
43 45 47 47 47 46 44 43 42 41 40 40 41 41 41 38 39 39 38 37 35 36 38 36 36 37 38 39 39 38 38 37 37 37 37 37 39 41 45 45 45 39 41
46 42 42 51 50 48 46 43 41 40 39 38 39 38 41 39 39 38 39 38 36 36 36 35 36 38 39 38 38 38 37 36 35 35 35 36 38 42 47 47 48 47 47
50 51 39 51 50 48 48 46 44 42 40 40 39 40 34 39 39 39 40 41 38 36 36 36 37 38 38 38 38 37 35 34 34 34 34 35 37 39 42 50 51 50 49
51 52 51 49 50 48 47 47 45 44 43 42 42 42 36 41 41 40 41 41 43 43 39 38 39 39 39 38 38 35 33 32 33 32 32 34 36 38 43 52 51 49 48
52 51 51 49 48 43 47 46 45 43 43 42 42 41 41 40 40 40 40 42 44 45 46 43 41 41 41 41 39 35 32 31 31 32 33 34 35 38 44 51 51 49 48
51 50 49 48 47 47 45 45 43 40 41 41 41 40 39 39 38 39 40 41 44 46 47 47 45 43 42 39 37 34 34 32 33 33 33 35 39 41 50 50 50 49 47
49 49 48 45 46 45 45 43 41 41 41 40 39 39 39 39 39 39 40 42 44 45 46 46 46 44 41 38 35 34 33 32 33 32 36 41 46 50 51 49 49 49 47
48 48 46 45 43 44 42 41 39 39 38 38 38 38 37 37 38 39 40 41 43 44 45 45 44 43 43 37 34 32 32 32 32 32 36 40 42 43 44 50 50 48 47
MSLP
1010.85 1011.03 1011.53 1012.34 1013.04 1013.63 1014.19 1014.65 1015.06 1015.17 1015.26 1015.20 1015.27 1015.30 1015.31 1015.40 1015.41 1015.30 1015.16 1015.03 1014.91 1014.79 1014.66 1014.59 1014.50 1014.15 1014.07 1013.78 1013.51 1013.17 1012.79 1012.29 1011.36 1010.52 1010.16 1009.32 1008.55 1007.54 1007.01 1006.62 1006.28 1005.89 1005.77
1011.09 1011.49 1012.24 1012.87 1013.58 1014.16 1014.71 1015.14 1015.37 1015.48 1015.48 1015.46 1015.48 1015.45 1015.49 1015.51 1015.46 1015.47 1015.37 1015.23 1015.08 1015.15 1015.09 1014.89 1014.54 1014.36 1014.24 1013.90 1013.61 1013.46 1013.14 1012.60 1012.01 1011.06 1010.51 1009.77 1009.23 1008.43 1007.80 1007.28 1006.81 1006.18 1005.67
1011.37 1012.16 1012.89 1013.48 1014.19 1014.85 1015.27 1015.60 1015.69 1015.70 1015.63 1015.72 1015.78 1015.78 1015.72 1015.81 1015.76 1015.64 1015.60 1015.64 1015.62 1015.54 1015.26 1015.07 1014.75 1014.46 1014.19 1013.94 1013.81 1013.54 1013.16 1012.62 1012.25 1011.67 1010.82 1010.16 1009.35 1008.65 1007.86 1007.26 1006.87 1006.57 1006.06
1011.80 1012.70 1013.70 1014.35 1014.84 1015.23 1015.53 1015.85 1015.91 1015.94 1015.88 1016.00 1016.10 1016.16 1016.10 1016.01 1015.95 1016.38 1016.39 1016.30 1015.95 1015.65 1015.37 1015.08 1014.77 1014.38 1014.37 1014.02 1013.75 1013.54 1013.22 1012.93 1012.51 1012.02 1011.26 1010.60 1009.84 1008.81 1008.13 1007.59 1006.95 1006.71 1006.77
1012.37 1013.39 1014.28 1014.76 1015.12 1015.41 1015.77 1015.98 1016.03 1016.11 1016.26 1016.33 1016.41 1016.27 1016.17 1016.16 1016.77 1017.04 1016.91 1016.50 1016.20 1015.78 1015.35 1014.95 1014.64 1014.61 1014.37 1014.22 1013.95 1013.67 1013.41 1013.01 1012.60 1012.10 1011.47 1010.97 1010.28 1009.48 1009.03 1008.44 1007.82 1007.32 1006.93
1013.24 1014.08 1014.75 1015.25 1015.47 1015.76 1015.92 1016.10 1016.13 1016.36 1016.58 1016.62 1016.51 1016.29 1016.38 1016.70 1017.08 1017.14 1017.11 1016.86 1016.45 1015.94 1015.31 1014.90 1014.76 1014.53 1014.20 1013.97 1013.77 1013.60 1013.47 1013.01 1012.54 1012.16 1011.63 1011.04 1010.45 1010.00 1009.54 1009.00 1008.50 1008.00 1007.54
1014.38 1014.99 1015.37 1015.74 1015.87 1016.10 1016.16 1016.37 1016.62 1016.75 1016.74 1016.72 1016.53 1016.66 1016.74 1016.86 1017.17 1017.27 1017.31 1017.10 1016.48 1015.71 1015.11 1014.75 1014.56 1014.22 1014.06 1013.68 1013.42 1013.15 1012.84 1012.49 1012.10 1011.67 1011.15 1010.76 1010.26 1009.88 1009.61 1009.14 1008.77 1008.43 1008.17
1015.87 1016.14 1016.12 1016.32 1016.32 1016.44 1016.65 1016.87 1017.01 1016.99 1017.03 1017.06 1017.05 1016.87 1016.85 1016.97 1017.30 1017.51 1017.44 1016.84 1016.20 1015.36 1015.09 1014.75 1014.42 1014.04 1013.74 1013.57 1013.30 1012.89 1012.50 1012.02 1011.51 1011.03 1010.62 1010.12 1009.80 1009.48 1009.32 1009.14 1008.93 1008.44 1008.13
1017.18 1017.00 1016.94 1016.87 1016.80 1017.03 1017.16 1017.44 1017.64 1017.80 1017.74 1017.50 1017.32 1017.09 1017.06 1017.13 1017.43 1017.53 1017.36 1016.82 1016.04 1015.57 1015.19 1014.76 1014.23 1013.87 1013.44 1013.32 1013.45 1012.77 1011.94 1011.31 1010.82 1010.34 1009.82 1009.39 1009.12 1008.94 1008.74 1008.65 1008.39 1008.18 1007.50
1017.95 1017.68 1017.57 1017.46 1017.57 1017.66 1018.03 1018.28 1018.32 1018.23 1017.98 1017.74 1017.52 1017.35 1017.18 1017.10 1017.37 1017.53 1017.30 1016.93 1016.17 1015.68 1015.26 1014.60 1013.93 1013.61 1013.49 1013.38 1013.12 1012.39 1011.57 1010.67 1010.19 1009.64 1009.32 1008.90 1008.46 1008.00 1007.77 1007.74 1007.64 1007.51 1007.16
1018.42 1018.34 1018.20 1018.30 1018.34 1018.50 1018.63 1018.58 1018.53 1018.33 1018.03 1017.71 1017.56 1017.45 1017.26 1017.22 1017.26 1017.43 1017.31 1017.02 1016.50 1016.03 1015.35 1014.50 1013.84 1013.66 1013.27 1012.84 1012.33 1011.88 1011.08 1010.20 1009.67 1009.31 1008.65 1008.13 1007.59 1007.11 1006.76 1006.58 1006.58 1006.72 1006.57
1019.00 1019.01 1018.98 1019.13 1019.09 1018.95 1018.80 1018.68 1018.55 1018.15 1018.06 1018.07 1017.86 1017.52 1017.44 1017.39 1017.49 1017.59 1017.48 1017.37 1016.92 1016.25 1015.42 1014.56 1013.98 1013.69 1013.05 1012.39 1011.75 1011.02 1010.33 1009.72 1009.11 1008.52 1007.97 1007.35 1006.82 1006.31 1005.85 1005.73 1005.67 1005.69 1005.65
1019.77 1019.74 1019.69 1019.44 1019.45 1019.22 1019.04 1018.90 1018.67 1018.42 1018.55 1018.30 1017.95 1018.10 1018.17 1017.95 1017.96 1017.91 1017.86 1017.46 1016.80 1016.10 1015.40 1014.77 1014.25 1013.60 1012.94 1012.17 1011.41 1010.79 1010.04 1009.19 1008.54 1007.91 1007.27 1006.57 1006.17 1005.78 1005.54 1005.06 1004.99 1004.99 1004.99
1020.28 1020.07 1019.86 1019.79 1020.00 1020.04 1019.71 1019.47 1019.30 1019.37 1019.41 1019.23 1019.09 1019.14 1018.96 1018.71 1018.52 1018.66 1018.12 1017.41 1016.68 1016.05 1015.56 1015.12 1014.31 1013.64 1012.99 1012.34 1011.43 1010.68 1010.01 1009.34 1008.61 1007.61 1006.80 1005.88 1005.37 1005.17 1004.97 1004.85 1004.70 1004.72 1004.63
1020.98 1020.92 1020.79 1020.61 1020.61 1020.56 1020.38 1020.14 1019.91 1019.85 1020.12 1020.08 1020.10 1020.06 1019.70 1019.32 1019.14 1019.07 1018.46 1017.55 1016.89 1016.39 1016.03 1015.07 1014.23 1013.74 1012.99 1012.27 1011.46 1010.72 1009.89 1009.10 1008.24 1007.45 1006.48 1005.44 1004.77 1004.51 1004.36 1004.38 1004.42 1004.46 1004.42
1021.91 1021.68 1021.48 1021.24 1021.08 1020.85 1020.42 1020.07 1020.28 1020.13 1020.12 1020.20 1020.23 1020.42 1020.24 1019.84 1019.40 1018.74 1018.06 1017.03 1015.92 1015.66 1015.61 1015.22 1014.82 1014.27 1013.59 1012.80 1011.88 1010.77 1009.86 1008.99 1008.22 1007.28 1006.26 1005.47 1004.62 1004.00 1003.92 1003.97 1004.04 1004.01 1003.91
1022.30 1021.95 1021.62 1021.37 1021.34 1021.15 1020.88 1020.66 1020.53 1020.25 1020.14 1020.31 1020.42 1020.42 1020.33 1019.86 1019.19 1018.76 1017.84 1016.28 1015.07 1015.29 1015.70 1015.68 1015.29 1014.64 1013.92 1013.05 1012.15 1011.21 1010.02 1009.11 1008.27 1007.29 1006.35 1005.31 1004.41 1003.57 1003.55 1003.56 1003.50 1003.44 1003.38
1022.27 1021.97 1021.67 1021.40 1021.14 1021.15 1021.19 1021.19 1021.09 1020.89 1020.57 1020.51 1020.51 1020.43 1020.20 1019.80 1019.18 1018.82 1018.13 1016.91 1016.39 1015.93 1015.90 1015.94 1015.52 1014.86 1014.07 1013.14 1012.15 1011.26 1010.24 1009.16 1008.28 1007.38 1006.37 1005.43 1004.52 1003.68 1003.14 1003.02 1002.95 1002.83 1002.76
1022.29 1021.70 1021.17 1020.89 1020.82 1020.90 1021.17 1021.33 1021.32 1021.28 1021.17 1020.95 1020.73 1020.64 1020.17 1019.97 1019.43 1019.08 1018.79 1018.24 1017.95 1017.29 1016.81 1016.37 1015.80 1015.11 1014.23 1013.38 1012.56 1011.57 1010.68 1009.75 1008.80 1007.64 1006.61 1005.72 1004.69 1003.76 1002.77 1002.41 1002.09 1002.01 1002.04
1021.89 1021.68 1021.25 1020.28 1020.39 1020.70 1020.95 1021.21 1021.40 1021.46 1021.51 1021.46 1021.10 1021.00 1020.45 1019.97 1019.41 1019.13 1018.58 1018.42 1018.30 1017.77 1017.20 1016.65 1015.99 1015.29 1014.50 1013.76 1012.77 1011.77 1010.72 1009.91 1008.94 1007.83 1006.85 1005.98 1004.89 1003.67 1002.34 1001.67 1001.15 1000.83 1000.79
1021.11 1020.75 1020.84 1020.31 1020.43 1020.68 1020.66 1020.91 1021.17 1021.38 1021.41 1021.33 1021.23 1021.01 1020.64 1020.24 1019.62 1019.30 1018.68 1018.38 1018.12 1017.74 1017.37 1016.85 1016.15 1015.49 1014.78 1013.97 1013.00 1012.07 1011.31 1010.35 1009.57 1008.33 1007.23 1006.09 1004.89 1003.69 1002.30 1001.14 1000.86 1000.53 1000.54
1021.14 1020.69 1020.50 1020.87 1020.83 1021.04 1021.12 1021.07 1021.33 1021.45 1021.48 1021.47 1021.36 1021.22 1020.87 1020.41 1019.97 1019.64 1019.10 1018.54 1017.84 1017.25 1017.27 1016.93 1016.30 1015.67 1015.03 1014.21 1013.29 1012.73 1011.81 1010.74 1009.78 1008.65 1007.44 1006.31 1005.04 1003.75 1002.49 1001.33 1001.23 1001.22 1001.30
1021.03 1020.81 1020.79 1021.07 1021.54 1021.48 1021.54 1021.59 1021.82 1022.03 1021.95 1021.92 1021.83 1021.62 1021.29 1020.88 1020.61 1020.14 1019.54 1018.85 1017.82 1016.95 1016.32 1016.38 1016.11 1015.52 1015.02 1014.37 1013.81 1013.48 1012.56 1011.50 1010.48 1009.19 1007.85 1006.42 1004.93 1003.83 1002.90 1001.95 1001.72 1001.73 1001.86
1021.43 1021.30 1021.43 1021.72 1021.85 1021.76 1022.25 1022.26 1022.52 1022.58 1022.49 1022.48 1022.40 1022.23 1021.90 1021.62 1021.27 1020.65 1019.99 1019.15 1017.97 1017.04 1016.40 1015.88 1015.78 1015.54 1014.96 1014.73 1014.32 1013.82 1012.96 1011.98 1010.64 1009.13 1007.80 1005.99 1004.24 1002.90 1002.49 1002.33 1002.15 1002.24 1002.27
1022.12 1021.98 1022.27 1022.55 1022.47 1022.50 1022.71 1023.13 1023.27 1023.30 1023.24 1023.20 1023.05 1022.84 1022.54 1022.24 1021.73 1021.12 1020.36 1019.41 1018.34 1017.59 1016.94 1016.43 1016.04 1015.67 1015.34 1015.19 1014.88 1014.13 1013.11 1011.82 1010.50 1009.13 1007.34 1005.90 1004.44 1003.21 1002.92 1002.81 1002.64 1002.68 1002.89
1022.89 1022.84 1023.28 1023.14 1023.42 1023.39 1023.65 1023.87 1024.08 1024.17 1024.04 1023.94 1023.81 1023.56 1023.26 1022.91 1022.28 1021.62 1020.78 1019.80 1018.95 1018.27 1017.67 1017.20 1016.80 1016.33 1015.56 1015.57 1015.22 1014.41 1013.35 1012.08 1010.68 1009.29 1008.06 1006.78 1005.69 1004.71 1004.04 1003.41 1003.10 1003.00 1003.13
Wind_Speed
8 9 9 9 8 7 6 6 5 3 5 5 5 5 5 6 6 6 6 8 9 9 7 8 10 9 7 7 7 8 8 9 11 10 11 12 14 13 10 7 6 7 6
9 9 9 8 8 6 6 5 4 4 4 6 6 7 8 8 7 8 10 9 9 10 11 11 10 8 9 8 6 8 8 9 10 14 11 11 13 15 15 14 10 10 9
10 10 8 8 8 6 5 4 4 5 6 7 7 8 9 10 10 9 9 10 10 11 10 10 10 9 9 6 6 7 8 8 9 10 11 10 10 10 11 10 9 7 10
11 11 9 7 6 4 4 4 5 6 7 7 8 9 9 9 9 10 10 10 10 10 10 10 10 9 8 9 8 8 7 8 9 9 10 10 11 10 7 8 8 7 8
13 11 7 5 4 5 5 5 6 6 7 8 9 8 8 7 7 7 8 10 11 11 10 10 9 14 19 11 7 8 8 8 8 9 11 11 10 10 10 9 9 6 8
10 8 6 5 4 6 6 6 6 8 8 8 8 8 7 7 5 6 8 9 10 11 10 9 9 13 8 14 13 12 11 10 11 9 9 10 12 11 10 9 9 8 6
7 8 8 6 7 7 8 8 8 7 7 7 7 8 6 5 3 6 8 8 10 10 9 7 8 8 10 9 10 13 13 15 14 12 12 12 13 10 9 8 8 7 6
8 7 8 8 8 8 8 9 8 8 9 9 8 6 5 3 3 4 9 10 11 9 9 9 8 9 9 5 9 12 13 13 13 10 12 12 12 11 8 7 10 9 7
8 8 9 9 10 10 10 10 10 9 8 8 8 8 6 4 4 4 9 10 10 10 9 10 8 10 10 8 8 13 15 14 13 17 15 13 14 15 13 8 8 8 8
8 9 9 10 11 9 9 9 7 7 7 7 7 7 8 4 3 2 6 7 9 8 10 11 11 7 8 8 14 13 13 14 12 12 11 13 14 13 14 11 8 9 7
8 8 10 10 9 8 8 6 6 7 6 6 7 7 7 4 1 4 8 8 8 9 9 9 8 12 14 20 18 11 12 13 15 10 10 9 9 9 8 7 8 8 8
9 9 10 9 8 7 7 6 6 6 6 7 7 7 6 7 8 10 13 10 13 9 10 9 10 18 19 19 16 15 16 16 8 8 8 8 8 8 7 7 6 7 9
9 9 9 9 10 9 7 7 6 7 7 7 7 8 8 7 7 13 17 18 17 11 9 11 17 18 17 15 17 19 16 9 8 8 8 9 8 7 8 6 5 6 6
9 10 9 8 9 9 8 7 6 7 8 8 8 8 7 8 8 10 11 10 13 11 13 12 14 14 13 12 13 12 9 9 10 10 10 9 7 6 6 4 3 4 4
9 8 8 6 7 7 6 5 4 5 4 5 6 7 8 8 9 14 14 11 10 11 14 8 7 9 10 10 11 11 10 9 10 9 11 10 8 6 6 4 4 4 6
5 6 6 5 6 5 5 5 3 2 2 3 3 4 7 11 16 19 20 22 20 11 3 5 7 8 9 10 11 13 11 14 11 11 10 10 9 5 5 4 4 5 5
4 4 3 4 4 5 6 6 7 7 6 3 1 4 12 14 18 16 22 25 15 6 5 6 7 9 10 10 10 11 12 12 14 10 10 10 9 7 4 4 5 5 6
4 3 2 3 3 5 5 7 6 6 7 7 4 8 13 19 12 15 22 16 11 10 8 8 9 10 10 11 10 12 13 13 12 11 11 10 9 9 4 5 5 6 6
3 4 4 3 5 4 5 5 7 7 7 7 7 8 11 15 13 9 10 8 9 10 9 9 9 9 10 11 11 12 13 12 12 12 11 10 10 8 5 5 6 8 7
3 8 9 4 5 6 5 5 6 7 6 6 7 7 9 8 8 8 7 7 7 8 9 9 10 10 10 11 12 12 13 13 13 12 12 10 10 10 6 7 6 8 7
4 4 2 7 7 7 6 7 6 6 6 7 5 6 7 7 8 8 9 9 6 6 7 9 9 10 10 11 11 12 13 12 11 12 12 11 11 10 10 7 3 5 5
4 5 6 8 7 8 7 7 8 7 7 7 7 8 10 8 8 9 10 9 9 6 4 6 8 9 10 11 10 13 14 14 14 13 13 12 11 11 10 1 5 5 5
5 7 8 8 7 7 8 8 8 8 8 8 8 8 9 8 9 10 10 11 10 9 5 4 7 9 9 10 10 11 13 14 14 14 14 13 11 9 8 4 4 4 4
6 8 8 7 6 7 8 8 9 8 8 8 8 8 9 9 10 11 11 11 10 10 10 7 7 12 11 12 11 12 12 14 14 13 17 12 12 9 4 4 3 4 4
7 8 8 8 7 8 8 9 8 9 8 8 8 8 9 9 9 10 11 12 11 11 12 12 11 16 13 18 19 21 22 24 21 21 13 15 16 14 5 3 3 5 5
7 8 7 7 7 8 7 8 8 8 8 8 8 9 8 9 10 10 11 12 12 12 14 11 15 22 16 16 20 23 24 26 23 26 15 13 13 12 11 6 4 4 4
Wind_Direction
142 110 106 108 113 108 86 78 67 43 26 2 4 340 336 329 330 335 323 314 329 322 324 334 332 321 352 342 335 329 328 328 320 320 322 328 322 316 328 320 310 293 232
120 114 107 104 91 74 74 66 37 31 8 6 348 344 337 335 341 335 328 325 327 355 340 324 333 337 333 326 329 324 317 316 309 310 309 314 317 322 323 338 339 317 310
127 105 86 88 90 82 73 54 22 11 15 357 348 344 339 338 335 326 335 5 349 336 320 334 327 324 311 333 325 305 307 309 318 315 310 309 305 304 311 314 319 345 343
127 107 84 74 77 89 63 35 16 12 357 352 348 343 337 334 355 16 357 345 334 329 322 319 315 316 343 325 321 326 326 321 309 303 310 313 312 308 308 315 328 336 343
94 93 104 110 77 59 40 19 17 1 2 356 343 337 337 333 36 12 350 346 330 318 311 314 329 338 324 356 333 324 319 315 308 301 299 302 301 318 322 326 315 334 320
73 86 81 49 32 38 24 11 11 14 2 345 340 330 19 360 67 28 3 335 319 311 308 319 315 309 343 333 329 324 308 298 297 296 297 291 292 296 300 303 310 323 323
64 56 43 16 22 13 15 7 13 360 350 336 350 10 8 1 70 11 348 317 307 291 297 311 318 319 313 305 308 307 302 297 281 280 279 278 284 287 298 301 303 302 302
39 29 25 11 12 15 8 14 4 358 4 359 347 337 1 45 69 19 331 318 309 310 329 317 314 314 316 346 323 314 307 300 294 290 286 286 279 279 271 281 284 285 277
26 19 15 14 18 10 11 11 14 357 348 335 340 348 345 341 122 14 336 327 317 324 324 307 322 301 297 350 321 306 303 295 289 289 278 280 278 272 265 277 272 272 278
23 11 17 22 21 11 20 11 353 339 329 343 332 333 329 352 144 293 331 325 317 332 321 314 298 308 339 312 317 309 295 293 299 298 293 289 278 275 260 246 253 258 263
19 16 26 25 6 22 10 350 339 329 325 329 343 333 321 12 70 257 325 322 335 324 314 313 319 329 323 316 308 300 282 289 293 285 281 281 279 270 263 252 235 235 245
27 25 26 16 14 2 0 346 331 332 359 348 331 337 348 348 44 17 1 359 333 319 311 304 325 332 320 315 317 311 301 297 281 275 274 276 275 275 267 249 239 235 233
35 28 23 23 11 360 349 2 350 1 8 344 353 359 346 349 358 16 344 338 324 318 305 335 330 323 316 320 321 317 321 319 300 283 278 276 268 263 290 267 236 248 254
30 29 14 26 8 8 358 13 3 25 0 350 359 351 349 350 344 349 330 325 321 324 333 320 310 309 310 310 323 325 324 317 314 307 308 287 273 257 257 266 277 275 252
24 26 15 12 13 12 2 334 342 49 31 351 359 345 346 340 345 324 313 312 310 306 312 301 326 333 330 329 327 328 329 325 324 321 309 309 291 257 247 237 238 249 262
28 27 23 6 5 354 343 7 182 260 129 189 244 297 336 325 329 322 316 314 302 305 300 344 335 331 327 326 327 326 328 332 327 316 316 313 307 267 247 230 224 230 241
14 19 14 28 13 354 2 10 4 13 172 121 342 325 5 342 338 351 347 336 355 96 32 357 341 333 325 322 323 324 325 328 324 326 314 312 311 291 223 238 235 234 237
26 359 38 25 32 21 16 13 9 8 1 13 9 12 13 354 353 20 0 357 360 359 15 357 342 333 326 324 326 331 327 328 332 328 323 322 319 313 246 235 230 237 237
23 23 40 29 52 39 29 24 14 8 11 3 357 7 357 350 349 358 10 19 360 354 350 345 339 330 328 332 331 329 329 331 327 327 328 326 319 311 266 251 240 232 230
295 243 254 36 52 40 44 43 19 16 14 1 1 1 354 347 4 358 4 7 355 356 347 342 337 333 339 333 331 332 333 334 333 332 330 326 320 314 276 262 258 245 220
309 77 8 31 41 36 13 38 36 19 10 8 2 11 324 348 358 3 2 355 354 342 341 341 340 341 337 333 330 338 334 332 333 328 325 322 317 311 303 276 324 36 67
23 17 41 43 21 31 11 31 29 16 19 11 8 12 350 4 9 4 357 351 346 340 335 332 338 342 341 333 342 343 336 334 334 329 321 318 316 312 308 40 65 63 66
24 30 38 55 12 49 17 25 38 14 10 18 15 7 7 8 8 6 351 342 336 342 358 348 345 352 349 349 356 347 337 335 329 320 316 314 305 302 308 18 42 82 81
19 40 42 29 41 27 34 25 28 16 13 16 23 9 5 12 5 353 347 340 337 347 351 1 6 2 355 4 358 348 340 334 328 325 320 302 293 275 283 53 38 86 79
18 42 36 40 18 34 27 33 24 16 14 13 18 9 8 5 360 349 344 338 348 353 359 358 6 356 21 8 1 351 345 341 341 338 334 340 354 2 16 43 52 86 92
42 38 37 49 25 37 31 29 24 17 16 12 12 9 5 359 352 351 347 346 357 353 359 3 2 359 13 7 359 351 349 347 348 345 346 350 356 356 350 1 19 92 95